TimeCDT,TemperatureF,Dew PointF,Humidity,Sea Level PressureIn,VisibilityMPH,Wind Direction,Wind SpeedMPH,Gust SpeedMPH,PrecipitationIn,Events,Conditions,WindDirDegrees,DateUTC
12:53 AM,32.0,23.0,69,30.08,10.0,North,6.9,-,N/A,,Overcast,10,2013-03-23 05:53:00
1:53 AM,30.2,23.0,75,30.04,10.0,NNE,5.8,-,N/A,,Overcast,30,2013-03-23 06:53:00
2:53 AM,30.9,21.9,69,30.08,10.0,NNE,6.9,-,N/A,,Overcast,30,2013-03-23 07:53:00
3:53 AM,30.0,23.0,75,30.08,10.0,North,5.8,-,N/A,,Overcast,10,2013-03-23 08:53:00
4:53 AM,30.0,23.0,75,30.08,10.0,NNE,5.8,-,N/A,,Overcast,20,2013-03-23 09:53:00
5:53 AM,30.0,23.0,75,30.07,10.0,NNE,4.6,-,N/A,,Overcast,30,2013-03-23 10:53:00
6:53 AM,28.9,23.0,78,30.09,10.0,NNE,6.9,-,N/A,,Overcast,30,2013-03-23 11:53:00
7:53 AM,30.0,23.0,75,30.10,10.0,NNE,6.9,-,N/A,,Overcast,30,2013-03-23 12:53:00
8:53 AM,32.0,24.1,73,30.11,10.0,NE,9.2,-,N/A,,Overcast,40,2013-03-23 13:53:00
9:53 AM,35.1,23.0,61,30.11,10.0,NE,6.9,-,N/A,,Overcast,50,2013-03-23 14:53:00
10:53 AM,36.0,23.0,59,30.12,10.0,NE,5.8,-,N/A,,Overcast,50,2013-03-23 15:53:00
11:53 AM,37.9,21.9,53,30.12,10.0,NE,10.4,-,N/A,,Overcast,50,2013-03-23 16:53:00
12:53 PM,41.0,23.0,49,30.11,10.0,ENE,8.1,-,N/A,,Clear,70,2013-03-23 17:53:00
1:53 PM,41.0,21.9,47,30.09,10.0,Variable,4.6,-,N/A,,Clear,0,2013-03-23 18:53:00
2:53 PM,42.1,21.9,45,30.03,10.0,East,11.5,-,N/A,,Clear,80,2013-03-23 19:53:00
3:53 PM,44.1,21.9,42,30.02,10.0,NNE,10.4,-,N/A,,Scattered Clouds,30,2013-03-23 20:53:00
4:53 PM,42.1,21.0,43,30.00,10.0,NE,8.1,19.6,N/A,,Mostly Cloudy,40,2013-03-23 21:53:00
5:53 PM,41.0,19.9,43,29.99,10.0,NE,12.7,-,N/A,,Overcast,50,2013-03-23 22:53:00
6:53 PM,39.0,21.0,49,30.01,10.0,NE,8.1,-,N/A,,Mostly Cloudy,40,2013-03-23 23:53:00
7:53 PM,37.9,21.0,51,30.02,10.0,NNE,6.9,-,N/A,,Mostly Cloudy,30,2013-03-24 00:53:00
8:53 PM,36.0,23.0,59,30.02,10.0,NNE,9.2,-,N/A,,Overcast,20,2013-03-24 01:53:00
9:53 PM,36.0,24.1,62,30.02,10.0,NNE,8.1,-,N/A,,Overcast,20,2013-03-24 02:53:00
10:53 PM,33.1,28.0,82,30.04,8.0,North,13.8,-,0.00,,Overcast,10,2013-03-24 03:53:00
11:13 PM,32.0,28.4,87,30.02,4.0,North,11.5,-,0.00,Snow,Light Snow,10,2013-03-24 04:13:00
11:25 PM,32.0,28.4,87,30.02,2.0,North,11.5,-,0.00,Snow,Light Snow,10,2013-03-24 04:25:00
11:38 PM,32.0,28.4,87,30.02,1.5,NNE,10.4,-,0.00,Snow,Light Snow,20,2013-03-24 04:38:00
11:53 PM,30.9,28.9,92,30.04,1.2,NNE,13.8,-,0.00,Snow,Light Snow,20,2013-03-24 04:53:00